N9LYA-3 Weather Reports


time (UTC)temp
C
wind
direction
speed
KPH
gust
KPH
rain 1hr
cm
rain 24hr
cm
rain mn
cm
humidity
%
barometer
mb
20260905172953 33 196 0.0 4.8 0.00 0.00 0.00 61 1013.7
20260905172653 33 196 0.0 4.8 0.00 0.00 0.00 61 1013.7
20260905172351 33 71 0.0 0.0 0.00 0.00 0.00 61 1013.7
20260905172053 33 71 0.0 0.0 0.00 0.00 0.00 61 1013.7
20260905171753 32 193 0.0 0.0 0.00 0.00 0.00 61 1013.7
20260905171451 32 134 0.0 0.0 0.00 0.00 0.00 61 1013.7
20260905171151 32 134 0.0 0.0 0.00 0.00 0.00 61 1013.7
20260905170553 32 202 0.0 0.0 0.00 0.00 0.00 61 1013.8
20260905170252 32 216 0.0 8.0 0.00 0.00 0.00 61 1013.8
20260905165951 32 185 0.0 9.7 0.00 0.00 0.00 61 1013.8
20260905165653 32 185 0.0 9.7 0.00 0.00 0.00 61 1013.8
20260905165353 32 199 0.0 0.0 0.00 0.00 0.00 61 1014.8
20260905165051 32 199 0.0 0.0 0.00 0.00 0.00 61 1014.8
20260905164753 32 110 0.0 4.8 0.00 0.00 0.00 61 1014.8
20260905164453 31 134 0.0 0.0 0.00 0.00 0.00 61 1014.8
20260905164153 31 134 0.0 0.0 0.00 0.00 0.00 61 1014.8
20260905163851 31 191 0.0 0.0 0.00 0.00 0.00 61 1014.9
20260905163553 31 191 0.0 0.0 0.00 0.00 0.00 61 1014.9
20260905163251 31 130 0.0 3.2 0.00 0.00 0.00 61 1014.9
20260905162951 31 179 0.0 0.0 0.00 0.00 0.00 61 1014.9
20260905162651 31 179 0.0 0.0 0.00 0.00 0.00 61 1014.9
20260905162351 31 153 0.0 0.0 0.00 0.00 0.00 61 1014.9
20260905162051 31 153 0.0 0.0 0.00 0.00 0.00 61 1014.9
20260905161751 31 151 0.0 3.2 0.00 0.00 0.00 61 1014.9
20260905161153 31 155 0.0 0.0 0.00 0.00 0.00 61 1014.9
20260905160851 31 130 0.0 6.4 0.00 0.00 0.00 61 1014.9
20260905160251 31 232 0.0 0.0 0.00 0.00 0.00 61 1014.9
20260905155951 30 125 0.0 6.4 0.00 0.00 0.00 61 1014.9
20260905155652 30 125 0.0 6.4 0.00 0.00 0.00 61 1014.9
20260905155351 31 148 0.0 4.8 0.00 0.00 0.00 63 1014.9
20260905155051 31 148 0.0 4.8 0.00 0.00 0.00 63 1014.9
20260905154753 30 194 0.0 4.8 0.00 0.00 0.00 61 1014.9
20260905154153 30 202 0.0 8.0 0.00 0.00 0.00 63 1014.9
20260905153853 30 148 0.0 3.2 0.00 0.00 0.00 63 1015.0
20260905153553 30 148 0.0 3.2 0.00 0.00 0.00 63 1015.0
20260905153252 30 187 0.0 0.0 0.00 0.00 0.00 63 1015.0
20260905152951 30 180 0.0 4.8 0.00 0.00 0.00 63 1015.0
20260905152653 30 180 0.0 4.8 0.00 0.00 0.00 63 1015.0
20260905152051 30 113 0.0 4.8 0.00 0.00 0.00 65 1015.0
20260905151751 30 76 0.0 3.2 0.00 0.00 0.00 65 1015.1
20260905151451 30 82 0.0 0.0 0.00 0.00 0.00 65 1015.1
20260905151153 30 82 0.0 0.0 0.00 0.00 0.00 65 1015.1
20260905150551 30 136 0.0 11.3 0.00 0.00 0.00 65 1015.1
20260905150253 30 175 0.0 3.2 0.00 0.00 0.00 65 1015.1
20260905145953 28 122 3.2 9.7 0.00 0.00 0.00 65 1015.1
20260905145653 28 122 3.2 9.7 0.00 0.00 0.00 65 1015.1
20260905145351 28 150 0.0 9.7 0.00 0.00 0.00 67 1015.1
20260905145051 28 150 0.0 9.7 0.00 0.00 0.00 67 1015.1
20260905144751 28 81 0.0 0.0 0.00 0.00 0.00 69 1015.1
20260905144453 27 184 0.0 6.4 0.00 0.00 0.00 69 1015.2
20260905144153 27 184 0.0 6.4 0.00 0.00 0.00 69 1015.2
20260905143851 27 199 0.0 4.8 0.00 0.00 0.00 71 1016.2
20260905143251 27 218 0.0 3.2 0.00 0.00 0.00 69 1016.2
20260905142951 27 128 0.0 0.0 0.00 0.00 0.00 76 1016.2
20260905142652 27 128 0.0 0.0 0.00 0.00 0.00 76 1016.2
20260905142351 27 151 0.0 0.0 0.00 0.00 0.00 78 1016.2
20260905142051 27 151 0.0 0.0 0.00 0.00 0.00 78 1016.2
20260905141751 26 111 0.0 4.8 0.00 0.00 0.00 84 1016.3
20260905141452 26 189 0.0 6.4 0.00 0.00 0.00 86 1016.3
20260905141153 26 189 0.0 6.4 0.00 0.00 0.00 86 1016.3
20260905140852 25 135 0.0 3.2 0.00 0.00 0.00 88 1016.3
20260905135951 25 146 0.0 0.0 0.00 0.00 0.00 88 1016.4
20260905135651 25 146 0.0 0.0 0.00 0.00 0.00 88 1016.4
20260905135351 25 131 0.0 4.8 0.00 0.00 0.00 86 1016.4
20260905135051 25 131 0.0 4.8 0.00 0.00 0.00 86 1016.4
20260905134751 25 27 0.0 12.9 0.00 0.00 0.00 86 1016.3
20260905134151 25 70 0.0 0.0 0.00 0.00 0.00 84 1016.3
20260905133851 26 99 0.0 8.0 0.00 0.00 0.00 82 1016.3
20260905133551 26 99 0.0 8.0 0.00 0.00 0.00 82 1016.3
20260905132951 26 141 0.0 4.8 0.00 0.00 0.00 84 1016.3
20260905132051 26 115 0.0 16.1 0.00 0.00 0.00 88 1016.3
20260905131751 26 54 0.0 12.9 0.00 0.00 0.00 95 1016.3
20260905131451 25 49 0.0 4.8 0.00 0.00 0.00 95 1016.3
20260905130851 25 44 0.0 4.8 0.00 0.00 0.00 93 1016.4
20260905130551 25 44 0.0 4.8 0.00 0.00 0.00 93 1016.4
20260905130253 25 40 0.0 3.2 0.00 0.00 0.00 91 1016.4
20260905125951 25 91 0.0 11.3 0.00 0.00 0.00 88 1016.3
20260905125652 25 91 0.0 11.3 0.00 0.00 0.00 88 1016.3
20260905125351 26 35 0.0 8.0 0.00 0.00 0.00 88 1015.3
20260905125051 26 35 0.0 8.0 0.00 0.00 0.00 88 1015.3
20260905124751 26 216 0.0 0.0 0.00 0.00 0.00 99 1015.3
20260905124451 26 216 0.0 0.0 0.00 0.00 0.00 99 1015.3
20260905124152 26 216 0.0 0.0 0.00 0.00 0.00 99 1015.3
20260905123851 26 216 0.0 0.0 0.00 0.00 0.00 99 1015.3
20260905123551 26 216 0.0 0.0 0.00 0.00 0.00 99 1015.3
20260905123252 25 216 0.0 0.0 0.00 0.00 0.00 99 1015.3
20260905122951 25 216 0.0 0.0 0.00 0.00 0.00 99 1015.4
20260905122051 25 216 0.0 0.0 0.00 0.00 0.00 99 1015.4
20260905121751 25 216 0.0 0.0 0.00 0.00 0.00 99 1015.5
20260905121451 23 216 0.0 0.0 0.00 0.00 0.00 99 1015.5
20260905121152 23 216 0.0 0.0 0.00 0.00 0.00 99 1015.5
20260905120851 23 216 0.0 0.0 0.00 0.00 0.00 99 1015.5
20260905120551 23 216 0.0 0.0 0.00 0.00 0.00 99 1015.5
20260905120251 23 216 0.0 0.0 0.00 0.00 0.00 99 1015.5
20260905115951 23 216 0.0 0.0 0.00 0.00 0.00 99 1015.5
20260905115651 23 216 0.0 0.0 0.00 0.00 0.00 99 1015.5
20260905115351 23 216 0.0 0.0 0.00 0.00 0.00 99 1014.5
20260905115051 23 216 0.0 0.0 0.00 0.00 0.00 99 1014.5
20260905114751 23 216 0.0 0.0 0.00 0.00 0.00 99 1014.5
20260905114451 23 216 0.0 0.0 0.00 0.00 0.00 99 1014.5
20260905114152 23 216 0.0 0.0 0.00 0.00 0.00 99 1014.5
20260905113851 23 216 0.0 0.0 0.00 0.00 0.00 99 1014.5
20260905113551 23 216 0.0 0.0 0.00 0.00 0.00 99 1014.5
20260905113251 23 216 0.0 4.8 0.00 0.00 0.00 99 1014.5
20260905112951 23 198 0.0 0.0 0.00 0.00 0.00 99 1014.5
20260905112652 23 198 0.0 0.0 0.00 0.00 0.00 99 1014.5
20260905112352 23 203 0.0 0.0 0.00 0.00 0.00 99 1014.5
20260905112051 23 203 0.0 0.0 0.00 0.00 0.00 99 1014.5
20260905111752 23 203 0.0 0.0 0.00 0.00 0.00 99 1014.5
20260905111451 23 203 0.0 0.0 0.00 0.00 0.00 99 1014.5
20260905110552 23 203 0.0 0.0 0.00 0.00 0.00 99 1014.5
20260905110251 23 203 0.0 0.0 0.00 0.00 0.00 99 1014.5
20260905105952 23 203 0.0 0.0 0.00 0.00 0.00 99 1014.5
20260905104751 23 203 0.0 0.0 0.00 0.00 0.00 99 1014.5
20260905104151 23 203 0.0 0.0 0.00 0.00 0.00 99 1014.5
20260905103851 23 203 0.0 0.0 0.00 0.00 0.00 99 1014.5
20260905103551 23 203 0.0 0.0 0.00 0.00 0.00 99 1014.5
20260905102951 23 204 0.0 0.0 0.00 0.00 0.00 99 1014.5
20260905102052 23 203 0.0 0.0 0.00 0.00 0.00 99 1014.5
20260905101153 23 203 0.0 0.0 0.00 0.00 0.00 99 1014.5
20260905100551 23 203 0.0 0.0 0.00 0.00 0.00 99 1014.5
20260905100252 23 203 0.0 0.0 0.00 0.00 0.00 99 1014.5
20260905095951 23 203 0.0 0.0 0.00 0.00 0.00 99 1014.5
20260905095051 23 203 0.0 0.0 0.00 0.00 0.00 99 1014.5
20260905094753 23 203 0.0 0.0 0.00 0.00 0.00 99 1014.5
20260905094451 23 203 0.0 0.0 0.00 0.00 0.00 99 1014.5
20260905094151 23 203 0.0 0.0 0.00 0.00 0.00 99 1014.5
20260905093851 23 203 0.0 0.0 0.00 0.00 0.00 99 1014.5
20260905093251 23 203 0.0 0.0 0.00 0.00 0.00 99 1014.5
20260905092951 23 203 0.0 0.0 0.00 0.00 0.00 99 1014.5
20260905092351 23 203 0.0 0.0 0.00 0.00 0.00 99 1014.5
20260905091751 23 203 0.0 0.0 0.00 0.00 0.00 99 1014.4
20260905091451 23 203 0.0 0.0 0.00 0.00 0.00 99 1014.4
20260905090851 23 203 0.0 0.0 0.00 0.00 0.00 99 1014.4
20260905090252 23 203 0.0 0.0 0.00 0.00 0.00 99 1014.4
20260905085351 25 203 0.0 0.0 0.00 0.00 0.00 99 1013.4
20260905085051 25 203 0.0 0.0 0.00 0.00 0.00 99 1013.4
20260905084752 25 202 0.0 0.0 0.00 0.00 0.00 99 1013.4
20260905084451 25 202 0.0 0.0 0.00 0.00 0.00 99 1013.4
20260905083251 25 202 0.0 0.0 0.00 0.00 0.00 99 1013.4
20260905082652 25 202 0.0 0.0 0.00 0.00 0.00 99 1013.4
20260905082510 25 202 0.0 0.0 0.00 0.00 0.00 99 1013.4
20260905082351 25 202 0.0 0.0 0.00 0.00 0.00 99 1013.4
20260905082051 25 202 0.0 0.0 0.00 0.00 0.00 99 1013.4
20260905081752 25 202 0.0 0.0 0.00 0.00 0.00 99 1013.4
20260905081451 25 202 0.0 0.0 0.00 0.00 0.00 99 1013.4
20260905081151 25 202 0.0 0.0 0.00 0.00 0.00 99 1013.4
20260905080851 25 202 0.0 0.0 0.00 0.00 0.00 99 1013.4
20260905075954 25 198 0.0 0.0 0.00 0.00 0.00 99 1013.4
20260905075923 25 198 0.0 0.0 0.00 0.00 0.00 99 1013.4
20260905075652 25 198 0.0 0.0 0.00 0.00 0.00 99 1013.4
20260905075351 25 229 0.0 0.0 0.00 0.00 0.00 99 1013.4
20260905075052 25 229 0.0 0.0 0.00 0.00 0.00 99 1013.4
20260905074752 25 229 0.0 0.0 0.00 0.00 0.00 99 1013.4
20260905073851 25 229 0.0 0.0 0.00 0.00 0.00 99 1013.4
20260905073551 25 229 0.0 0.0 0.00 0.00 0.00 99 1013.4
20260905072951 25 229 0.0 0.0 0.00 0.00 0.00 99 1013.4
20260905072652 25 229 0.0 0.0 0.00 0.00 0.00 99 1013.4
20260905072051 25 229 0.0 0.0 0.00 0.00 0.00 99 1014.4
20260905071751 25 229 0.0 0.0 0.00 0.00 0.00 99 1014.4
20260905071451 25 229 0.0 0.0 0.00 0.00 0.00 99 1014.4
20260905070851 25 229 0.0 0.0 0.00 0.00 0.00 99 1014.4
20260905070551 25 229 0.0 0.0 0.00 0.00 0.00 99 1014.4
20260905070252 25 229 0.0 0.0 0.00 0.00 0.00 99 1014.4
20260905065951 25 229 0.0 0.0 0.00 0.00 0.00 99 1014.4
20260905065651 25 229 0.0 0.0 0.00 0.00 0.00 99 1014.4
20260905065351 25 229 0.0 0.0 0.00 0.00 0.00 99 1014.4
20260905065051 25 229 0.0 0.0 0.00 0.00 0.00 99 1014.4
20260905064451 25 229 0.0 0.0 0.00 0.00 0.00 99 1014.4
20260905062952 25 229 0.0 0.0 0.00 0.00 0.00 99 1014.4
20260905062351 25 229 0.0 0.0 0.00 0.00 0.00 99 1014.4
20260905062051 25 229 0.0 0.0 0.00 0.00 0.00 99 1014.4
20260905061751 25 229 0.0 0.0 0.00 0.00 0.00 99 1014.4
20260905061152 25 229 0.0 0.0 0.00 0.00 0.00 99 1014.4
20260905060253 25 229 0.0 3.2 0.00 0.00 0.00 99 1014.4
20260905055653 25 228 0.0 0.0 0.00 0.00 0.00 99 1014.4
20260905055353 25 228 0.0 0.0 0.00 0.00 0.00 99 1014.4
20260905055053 25 228 0.0 0.0 0.00 0.00 0.00 99 1014.4
20260905053553 25 228 0.0 0.0 0.00 0.00 0.00 99 1014.3
20260905053253 25 228 0.0 0.0 0.00 0.00 0.00 99 1014.3
20260905052951 25 229 0.0 0.0 0.00 0.00 0.00 99 1014.3
20260905052052 25 228 0.0 0.0 0.00 0.00 0.00 99 1014.3
20260905051451 25 228 0.0 0.0 0.00 0.00 0.00 99 1014.4
20260905051151 25 228 0.0 0.0 0.00 0.00 0.00 99 1014.4
20260905050851 25 228 0.0 0.0 0.00 0.00 0.00 99 1014.4
20260905050551 25 228 0.0 0.0 0.00 0.00 0.00 99 1014.4
20260905050251 25 228 0.0 0.0 0.00 0.00 0.00 99 1014.4
20260905045951 25 228 0.0 0.0 0.00 0.00 0.00 99 1014.3
20260905045652 25 228 0.0 0.0 0.00 0.00 0.00 99 1014.3
20260905045351 25 228 0.0 0.0 0.00 0.00 0.00 99 1014.3
20260905045051 25 228 0.0 0.0 0.00 0.00 0.00 99 1014.3
20260905044751 25 228 0.0 0.0 0.00 0.00 0.00 99 1014.3
20260905044451 25 228 0.0 0.0 0.00 0.00 0.00 99 1014.3
20260905043851 25 228 0.0 0.0 0.00 0.00 0.00 99 1014.3
20260905043551 25 228 0.0 0.0 0.00 0.00 0.00 99 1014.3
20260905042651 25 228 0.0 0.0 0.00 0.00 0.00 99 1014.3
20260905042351 25 228 0.0 0.0 0.00 0.00 0.00 99 1014.3
20260905042051 25 228 0.0 0.0 0.00 0.00 0.00 99 1014.3
20260905041751 25 228 0.0 0.0 0.00 0.00 0.00 99 1014.3
20260905041451 25 228 0.0 0.0 0.00 0.00 0.00 99 1014.3
20260905040851 25 228 0.0 0.0 0.00 0.00 0.00 99 1014.3
20260905040551 25 228 0.0 0.0 0.00 0.00 0.00 99 1014.3
20260905040251 25 228 0.0 0.0 0.00 0.00 0.00 99 1014.3
20260905035951 25 228 0.0 0.0 0.00 0.00 0.00 99 1014.3
20260905035352 25 228 0.0 0.0 0.00 0.00 0.00 99 1014.3
20260905035126 25 226 0.0 0.0 0.00 0.00 0.00 99 1014.3
20260905035051 25 228 0.0 0.0 0.00 0.00 0.00 99 1014.3
20260905034751 25 226 0.0 0.0 0.00 0.00 0.00 99 1014.3
20260905034451 25 228 0.0 0.0 0.00 0.00 0.00 97 1014.3
20260905033851 26 228 0.0 0.0 0.00 0.00 0.00 95 1014.3
20260905033551 26 228 0.0 0.0 0.00 0.00 0.00 95 1014.3
20260905032951 26 228 0.0 0.0 0.00 0.00 0.00 93 1014.3
20260905032351 26 228 0.0 0.0 0.00 0.00 0.00 93 1014.2
20260905032052 26 228 0.0 0.0 0.00 0.00 0.00 93 1014.2
20260905031751 26 228 0.0 0.0 0.00 0.00 0.00 93 1014.2
20260905031451 26 228 0.0 0.0 0.00 0.00 0.00 91 1014.2
20260905030851 26 228 0.0 0.0 0.00 0.00 0.00 88 1014.2
20260905030551 26 228 0.0 0.0 0.00 0.00 0.00 88 1014.2
20260905025351 26 228 0.0 0.0 0.00 0.00 0.00 86 1015.3
20260905025051 26 228 0.0 0.0 0.00 0.00 0.00 86 1015.3
20260905024751 26 228 0.0 0.0 0.00 0.00 0.00 86 1015.3
20260905024451 26 228 0.0 0.0 0.00 0.00 0.00 86 1015.2
20260905024152 26 228 0.0 0.0 0.00 0.00 0.00 86 1015.2
20260905023851 27 228 0.0 0.0 0.00 0.00 0.00 84 1014.2
20260905023551 27 228 0.0 0.0 0.00 0.00 0.00 84 1014.2
20260905023251 27 228 0.0 0.0 0.00 0.00 0.00 84 1014.2
20260905022951 27 228 0.0 0.0 0.00 0.00 0.00 84 1014.2
20260905022351 27 228 0.0 0.0 0.00 0.00 0.00 82 1014.2
20260905022051 27 228 0.0 0.0 0.00 0.00 0.00 82 1014.2
20260905021751 27 231 0.0 0.0 0.00 0.00 0.00 82 1014.2
20260905021451 27 228 0.0 0.0 0.00 0.00 0.00 80 1014.1
20260905020851 27 228 0.0 0.0 0.00 0.00 0.00 80 1014.1
20260905020551 27 228 0.0 0.0 0.00 0.00 0.00 80 1014.1
20260905020251 27 228 0.0 0.0 0.00 0.00 0.00 78 1014.1
20260905015951 27 228 0.0 0.0 0.00 0.00 0.00 78 1014.1
20260905015351 27 228 0.0 0.0 0.00 0.00 0.00 76 1014.1
20260905015051 27 228 0.0 0.0 0.00 0.00 0.00 76 1014.1
20260905014752 27 228 0.0 0.0 0.00 0.00 0.00 74 1014.1
20260905014151 28 228 0.0 0.0 0.00 0.00 0.00 74 1014.1
20260905013851 28 229 0.0 0.0 0.00 0.00 0.00 71 1014.1
20260905013551 28 229 0.0 0.0 0.00 0.00 0.00 71 1014.1
20260905013251 28 228 0.0 0.0 0.00 0.00 0.00 71 1014.1
20260905012951 28 228 0.0 0.0 0.00 0.00 0.00 69 1014.1
20260905012351 28 228 0.0 0.0 0.00 0.00 0.00 69 1014.1
20260905011751 28 228 0.0 0.0 0.00 0.00 0.00 69 1014.1
20260905011451 28 228 0.0 0.0 0.00 0.00 0.00 69 1014.0
20260905010551 30 228 0.0 0.0 0.00 0.00 0.00 67 1014.0
20260905010251 30 228 0.0 0.0 0.00 0.00 0.00 67 1014.0
20260905005951 30 228 0.0 0.0 0.00 0.00 0.00 67 1014.0
20260905005351 30 228 0.0 0.0 0.00 0.00 0.00 65 1014.0
20260905005051 30 228 0.0 0.0 0.00 0.00 0.00 65 1014.0
20260905004751 30 228 0.0 0.0 0.00 0.00 0.00 65 1014.0
20260905004451 30 228 0.0 0.0 0.00 0.00 0.00 65 1014.0
20260905003851 30 228 0.0 0.0 0.00 0.00 0.00 63 1014.0
20260905003553 30 228 0.0 0.0 0.00 0.00 0.00 63 1014.0
20260905003251 30 228 0.0 0.0 0.00 0.00 0.00 63 1013.9
20260905002951 30 228 0.0 0.0 0.00 0.00 0.00 63 1013.9
20260905002351 30 228 0.0 0.0 0.00 0.00 0.00 63 1013.9
20260905002051 30 228 0.0 0.0 0.00 0.00 0.00 63 1013.9
20260905001751 31 228 0.0 0.0 0.00 0.00 0.00 63 1013.9
20260905001451 31 228 0.0 0.0 0.00 0.00 0.00 61 1013.9
20260905001152 31 228 0.0 0.0 0.00 0.00 0.00 61 1013.9
20260905000851 31 228 0.0 0.0 0.00 0.00 0.00 61 1013.8
20260905000551 31 228 0.0 0.0 0.00 0.00 0.00 61 1013.8
20260905000251 31 228 0.0 0.0 0.00 0.00 0.00 61 1013.8
20260904235951 32 228 0.0 0.0 0.00 0.00 0.00 61 1013.8
20260904235051 32 228 0.0 0.0 0.00 0.00 0.00 59 1013.8
20260904234751 32 228 0.0 0.0 0.00 0.00 0.00 59 1013.7
20260904234451 33 228 0.0 0.0 0.00 0.00 0.00 59 1013.7
20260904234153 33 228 0.0 0.0 0.00 0.00 0.00 59 1013.7
20260904233851 33 228 0.0 0.0 0.00 0.00 0.00 59 1012.7
20260904233551 33 228 0.0 0.0 0.00 0.00 0.00 59 1012.7
20260904233251 33 228 0.0 0.0 0.00 0.00 0.00 59 1012.7
20260904232953 33 228 0.0 0.0 0.00 0.00 0.00 59 1012.6
20260904232351 33 228 0.0 0.0 0.00 0.00 0.00 59 1013.7
20260904232052 33 228 0.0 0.0 0.00 0.00 0.00 59 1013.7
20260904231751 33 228 0.0 0.0 0.00 0.00 0.00 59 1013.7
20260904230851 33 228 0.0 0.0 0.00 0.00 0.00 59 1013.7
20260904230553 33 228 0.0 0.0 0.00 0.00 0.00 59 1013.7
20260904230252 33 226 0.0 0.0 0.00 0.00 0.00 59 1013.6
20260904225951 35 210 0.0 3.2 0.00 0.00 0.00 59 1013.6
20260904225351 35 210 0.0 0.0 0.00 0.00 0.00 59 1013.6
20260904225053 35 210 0.0 0.0 0.00 0.00 0.00 59 1013.6
20260904224753 35 203 0.0 3.2 0.00 0.00 0.00 59 1013.6
20260904223851 35 190 0.0 0.0 0.00 0.00 0.00 59 1013.6
20260904223553 35 190 0.0 0.0 0.00 0.00 0.00 59 1013.6
20260904223253 35 327 0.0 0.0 0.00 0.00 0.00 57 1013.5
20260904222951 35 327 0.0 0.0 0.00 0.00 0.00 57 1013.5
20260904222353 36 344 0.0 0.0 0.00 0.00 0.00 57 1013.5
20260904222051 36 344 0.0 0.0 0.00 0.00 0.00 57 1013.5
20260904221751 36 348 0.0 0.0 0.00 0.00 0.00 57 1013.5
20260904221451 36 329 0.0 0.0 0.00 0.00 0.00 57 1013.4
20260904220851 36 313 0.0 0.0 0.00 0.00 0.00 57 1013.5
20260904220551 36 313 0.0 0.0 0.00 0.00 0.00 57 1013.5
20260904220251 36 319 0.0 0.0 0.00 0.00 0.00 57 1013.5
20260904215951 36 319 0.0 0.0 0.00 0.00 0.00 57 1013.4
20260904215354 36 319 0.0 0.0 0.00 0.00 0.00 57 1013.4
20260904215053 36 319 0.0 0.0 0.00 0.00 0.00 57 1013.4
20260904214753 36 319 0.0 3.2 0.00 0.00 0.00 57 1013.4
20260904214453 36 256 0.0 0.0 0.00 0.00 0.00 57 1013.4
20260904213851 36 324 0.0 0.0 0.00 0.00 0.00 57 1013.4
20260904213553 36 324 0.0 0.0 0.00 0.00 0.00 57 1013.4
20260904213251 36 0 0.0 4.8 0.00 0.00 0.00 57 1013.5
20260904212953 36 227 0.0 0.0 0.00 0.00 0.00 57 1013.5
20260904212351 36 253 0.0 0.0 0.00 0.00 0.00 57 1013.4
20260904211751 36 271 0.0 0.0 0.00 0.00 0.00 57 1013.4
20260904211451 36 230 0.0 0.0 0.00 0.00 0.00 57 1013.4
20260904210853 36 310 0.0 0.0 0.00 0.00 0.00 57 1013.4
20260904210552 36 310 0.0 0.0 0.00 0.00 0.00 57 1013.4
20260904210251 37 245 0.0 3.2 0.00 0.00 0.00 57 1013.4
20260904205951 37 357 0.0 0.0 0.00 0.00 0.00 57 1013.4
20260904205351 37 326 0.0 4.8 0.00 0.00 0.00 57 1013.4
20260904205051 37 326 0.0 4.8 0.00 0.00 0.00 57 1013.4
20260904204751 37 320 0.0 0.0 0.00 0.00 0.00 57 1013.4
20260904203851 36 322 0.0 4.8 0.00 0.00 0.00 57 1014.4
20260904203551 36 322 0.0 4.8 0.00 0.00 0.00 57 1014.4
20260904203254 36 311 0.0 3.2 0.00 0.00 0.00 57 1014.4
20260904202652 36 262 0.0 6.4 0.00 0.00 0.00 57 1014.4
20260904202351 36 248 0.0 6.4 0.00 0.00 0.00 57 1014.5
20260904202051 36 248 0.0 6.4 0.00 0.00 0.00 57 1014.5
20260904201751 36 299 0.0 0.0 0.00 0.00 0.00 57 1014.5
20260904201453 35 0 0.0 4.8 0.00 0.00 0.00 57 1014.5
20260904201152 35 0 0.0 4.8 0.00 0.00 0.00 57 1014.5
20260904200851 35 221 0.0 0.0 0.00 0.00 0.00 57 1014.5
20260904200553 35 221 0.0 0.0 0.00 0.00 0.00 57 1014.5
20260904200251 35 204 0.0 0.0 0.00 0.00 0.00 59 1014.6
20260904195953 35 204 0.0 3.2 0.00 0.00 0.00 59 1014.6
20260904195351 35 211 0.0 0.0 0.00 0.00 0.00 59 1014.6
20260904195051 35 211 0.0 0.0 0.00 0.00 0.00 59 1014.6
20260904194753 35 161 0.0 0.0 0.00 0.00 0.00 59 1014.6
20260904194453 33 164 0.0 0.0 0.00 0.00 0.00 59 1014.7
20260904193853 33 189 0.0 0.0 0.00 0.00 0.00 61 1015.7
20260904193251 32 131 0.0 0.0 0.00 0.00 0.00 61 1015.8
20260904192951 32 207 0.0 3.2 0.00 0.00 0.00 61 1015.8
20260904192652 32 207 0.0 3.2 0.00 0.00 0.00 61 1015.8
20260904192351 32 252 0.0 3.2 0.00 0.00 0.00 61 1015.8
20260904192051 32 252 0.0 3.2 0.00 0.00 0.00 61 1015.8
20260904191751 32 206 0.0 6.4 0.00 0.00 0.00 61 1015.8
20260904191453 32 202 0.0 0.0 0.00 0.00 0.00 61 1015.8
20260904191152 32 202 0.0 0.0 0.00 0.00 0.00 61 1015.8
20260904190851 33 156 0.0 3.2 0.00 0.00 0.00 61 1015.7
20260904190551 33 156 0.0 3.2 0.00 0.00 0.00 61 1015.7
20260904190251 33 307 0.0 0.0 0.00 0.00 0.00 59 1015.7
20260904185951 35 309 0.0 0.0 0.00 0.00 0.00 59 1015.7
20260904185652 35 309 0.0 0.0 0.00 0.00 0.00 59 1015.7
20260904185351 35 320 0.0 0.0 0.00 0.00 0.00 59 1015.7
20260904185051 35 320 0.0 0.0 0.00 0.00 0.00 59 1015.7
20260904184751 35 338 0.0 3.2 0.00 0.00 0.00 59 1015.6
20260904184451 35 5 0.0 0.0 0.00 0.00 0.00 59 1015.6
20260904184153 35 5 0.0 0.0 0.00 0.00 0.00 59 1015.6
20260904183851 35 0 0.0 0.0 0.00 0.00 0.00 59 1015.6
20260904183551 35 0 0.0 0.0 0.00 0.00 0.00 59 1015.6
20260904182951 36 1 0.0 3.2 0.00 0.00 0.00 57 1015.5
20260904182351 36 339 0.0 8.0 0.00 0.00 0.00 57 1015.5
20260904181751 36 277 0.0 6.4 0.00 0.00 0.00 57 1015.5
20260904181451 36 357 0.0 6.4 0.00 0.00 0.00 57 1015.5
20260904181152 36 357 0.0 6.4 0.00 0.00 0.00 57 1015.5
20260904180553 36 153 0.0 6.4 0.00 0.00 0.00 57 1015.5
20260904180253 36 256 0.0 0.0 0.00 0.00 0.00 57 1015.5
20260904175951 36 257 0.0 0.0 0.00 0.00 0.00 57 1015.5
20260904175652 36 257 0.0 0.0 0.00 0.00 0.00 57 1015.5
20260904175351 36 303 0.0 6.4 0.00 0.00 0.00 57 1016.5
20260904175053 36 303 0.0 6.4 0.00 0.00 0.00 57 1016.5
20260904174751 36 323 0.0 0.0 0.00 0.00 0.00 57 1016.5
20260904174154 35 308 0.0 4.8 0.00 0.00 0.00 57 1016.5
20260904173851 35 254 0.0 0.0 0.00 0.00 0.00 57 1016.6
20260904173551 35 254 0.0 0.0 0.00 0.00 0.00 57 1016.6
20260904173253 35 285 0.0 3.2 0.00 0.00 0.00 57 1016.6